Theta_e
317 310 311 307 297 294 290 294 299 299 298 301 303 305 304 300 305 301 307 312 322 328 334 336 339 339 339 339 338 338 338 339 339 338 336 336 335 334 333 333 332 333 334 334 334 334 332 329 329
312 310 308 301 293 288 290 296 298 301 301 300 299 298 299 299 297 302 307 318 323 327 330 332 336 337 338 337 336 335 335 336 337 336 334 334 334 332 331 330 330 330 330 330 329 327 327 329 330
312 309 303 298 292 289 290 297 299 300 302 302 296 294 296 297 296 303 305 320 320 322 327 330 333 334 335 335 335 333 333 333 333 332 332 331 330 329 329 329 328 328 328 326 326 330 330 329 327
307 304 303 294 291 294 295 299 301 298 298 302 298 295 292 296 298 305 313 319 316 320 325 330 331 333 332 331 332 331 330 331 330 329 329 328 327 327 326 326 325 325 325 326 330 329 330 331 334
305 303 297 291 292 295 299 302 301 298 297 299 299 297 294 296 299 304 314 315 314 315 321 326 329 330 329 330 330 329 327 328 327 326 325 325 324 324 324 323 323 323 326 330 328 328 329 330 332
297 303 296 293 295 298 301 304 300 298 298 296 296 294 295 296 303 308 312 312 314 315 318 321 324 326 326 327 327 326 325 324 324 324 323 322 322 321 321 322 322 324 330 329 327 328 329 330 332
296 297 294 291 293 297 301 306 300 300 298 298 297 296 293 294 300 309 310 309 311 311 312 314 317 320 321 322 322 322 322 321 321 321 320 319 319 320 320 321 323 327 327 326 327 327 328 328 331
298 298 290 293 294 297 302 305 305 303 303 297 298 296 296 295 301 309 308 308 307 308 311 310 312 312 311 311 316 317 317 318 317 316 315 316 316 318 319 321 326 325 324 325 325 325 324 326 325
301 296 291 294 294 297 300 300 300 298 300 295 296 295 295 297 304 305 304 303 304 306 306 306 307 307 307 308 308 310 311 312 312 310 310 307 305 306 309 317 323 322 324 324 323 322 321 319 318
297 293 294 297 298 298 300 297 296 295 295 295 294 293 295 298 302 303 303 304 302 303 303 304 304 304 305 306 303 300 300 298 298 299 298 300 302 304 305 311 316 323 322 321 319 316 313 311 309
294 294 296 299 300 300 299 295 295 295 295 296 298 295 294 295 298 301 302 304 304 303 302 303 302 301 301 301 300 298 297 296 295 294 294 297 299 298 299 302 303 308 307 303 303 302 303 306 307
291 296 299 300 302 297 295 298 294 295 298 300 299 295 293 294 295 297 300 302 302 301 301 300 299 297 298 295 297 296 294 294 293 292 293 294 296 298 298 300 299 300 299 298 298 296 299 302 303
290 293 295 299 298 296 295 294 295 294 298 295 294 294 293 294 296 297 299 298 300 300 298 297 297 296 296 295 294 293 293 294 293 293 294 294 296 296 296 296 297 297 297 295 292 294 297 298 298
290 290 291 292 295 296 295 294 295 297 297 297 294 294 293 293 294 295 293 295 297 300 297 296 297 297 295 293 293 292 293 293 292 292 293 294 295 294 295 295 295 295 294 291 290 293 295 294 295
289 286 287 288 290 292 293 289 290 297 296 296 296 294 292 292 292 293 295 295 296 297 296 294 294 295 293 292 293 293 293 292 291 291 292 293 293 294 293 294 293 293 290 288 288 290 293 292 292
284 283 282 287 289 291 291 287 291 294 292 292 292 293 292 291 292 294 294 295 293 293 294 294 295 293 292 293 292 293 293 292 291 290 291 291 294 294 293 292 292 290 288 287 289 287 288 288 288
281 278 279 284 288 287 288 285 289 287 288 288 288 288 290 291 291 292 293 294 293 294 294 294 293 292 292 293 293 292 292 291 290 289 289 290 293 295 294 292 290 288 286 286 288 287 285 286 285
279 278 279 280 284 285 283 284 286 286 286 287 287 287 288 290 293 294 293 294 294 294 294 294 294 292 292 292 291 292 292 292 292 291 290 290 293 294 292 290 289 287 286 285 285 284 284 284 285
280 279 279 279 284 284 282 284 284 288 284 284 285 287 288 289 293 293 292 292 293 293 294 293 292 291 291 290 289 290 290 290 289 290 289 290 292 293 290 289 288 287 287 285 286 285 284 284 285
280 280 279 280 282 282 279 280 282 284 285 285 288 288 288 288 285 289 291 289 292 292 293 293 292 291 291 292 291 290 291 290 290 289 288 290 292 292 290 289 287 286 286 285 285 285 283 283 283
281 280 279 278 279 279 276 279 278 281 282 285 286 287 286 285 284 284 288 289 289 291 291 292 292 291 292 291 289 286 286 285 286 286 287 288 291 292 291 289 288 286 286 285 285 284 284 282 282
278 282 281 280 278 275 275 272 274 279 281 281 283 281 282 282 281 282 284 288 288 290 290 291 292 291 291 290 288 285 285 284 283 285 286 287 290 291 291 289 288 286 286 285 285 285 284 284 282
280 281 281 281 279 276 273 271 274 275 278 282 281 281 280 280 280 280 282 287 288 289 287 288 289 289 289 288 288 286 285 284 283 283 283 285 287 290 290 289 287 286 286 285 285 284 284 284 283
282 279 278 277 275 269 274 274 277 276 280 278 280 281 281 280 281 284 285 287 286 285 285 285 285 286 286 286 286 286 285 282 282 281 282 282 284 287 290 289 288 287 286 285 284 284 284 284 283
280 277 272 270 270 270 271 273 279 279 280 279 280 280 278 279 282 284 285 285 284 283 283 283 284 284 284 285 285 285 284 283 283 282 283 282 283 285 288 288 286 286 285 285 285 284 283 282 283
278 278 274 268 267 270 273 271 275 278 279 280 280 279 278 279 281 283 284 284 284 283 282 283 282 283 283 284 284 284 283 284 283 283 283 283 284 285 287 287 287 286 286 285 285 284 283 283 282
277 275 282 275 270 271 273 274 278 278 277 276 278 278 278 278 280 280 281 283 283 283 282 282 282 283 283 283 283 282 283 282 283 282 282 283 283 284 285 286 286 285 285 284 283 283 282 281 281
277 280 275 275 267 267 272 270 274 275 276 277 277 278 278 278 279 280 280 280 282 282 282 282 282 282 282 282 283 283 283 283 282 282 282 282 283 284 284 285 285 284 283 283 282 282 281 280 280
274 274 276 277 275 270 265 271 276 278 279 278 277 278 280 280 279 279 279 278 279 281 281 281 281 281 281 282 282 282 282 282 282 283 282 282 282 283 284 284 284 283 282 282 281 280 280 280 279
273 276 279 272 269 270 270 272 276 277 278 278 278 279 280 279 279 279 279 278 278 279 280 280 280 280 281 282 282 282 282 282 282 283 283 282 282 282 283 283 283 282 281 281 280 280 279 279 278
Wind_Speed
3 2 2 5 2 4 4 7 3 1 3 1 1 3 3 2 5 5 4 4 1 4 3 5 10 7 6 6 8 9 9 9 9 8 7 7 7 7 5 4 2 5 5 5 6 6 6 3 3
2 3 4 3 4 2 6 4 5 8 2 5 4 2 2 3 2 1 3 3 3 5 6 5 8 5 7 6 6 7 7 8 7 7 7 7 7 6 6 5 4 4 3 5 4 3 0 1 3
3 2 4 4 4 8 5 6 7 2 4 4 3 2 4 3 3 5 5 6 5 6 6 6 7 3 6 4 6 5 5 6 6 6 7 7 7 7 7 7 7 6 5 5 5 5 5 5 4
3 3 3 3 11 6 6 4 4 1 1 5 3 2 3 3 5 7 8 8 7 5 6 8 5 3 5 4 4 5 6 5 6 6 6 6 6 6 7 7 6 6 5 6 7 7 8 7 7
3 2 3 4 6 4 5 6 3 4 3 4 5 3 4 3 4 7 8 8 9 6 6 8 7 5 3 4 4 5 5 6 6 6 6 6 6 5 6 6 6 6 7 9 9 8 8 8 8
2 0 2 12 9 4 5 8 3 5 3 2 3 5 5 2 7 6 6 7 6 8 7 9 10 9 5 2 2 4 4 5 6 6 6 6 6 5 5 6 7 8 9 11 9 10 10 7 9
5 3 5 4 3 5 7 8 6 7 5 7 3 6 2 4 7 7 7 4 4 3 2 6 10 10 11 6 3 3 4 4 4 5 6 5 5 5 5 5 9 9 10 10 11 11 12 10 15
5 4 4 6 5 10 5 6 2 7 9 2 5 7 5 5 10 7 5 5 4 3 3 2 4 10 8 6 10 6 2 2 3 3 4 5 2 3 2 3 7 9 9 12 13 13 12 14 15
4 3 9 9 8 6 2 5 2 0 2 3 5 3 2 7 12 7 5 3 3 4 4 3 2 4 9 9 8 8 4 1 3 4 3 5 2 4 5 3 7 8 12 12 15 14 14 13 16
6 6 11 7 7 6 3 6 6 4 5 5 4 2 4 9 13 13 11 12 10 9 7 6 5 6 6 6 7 7 5 3 3 3 2 1 2 2 4 8 11 11 12 14 13 11 10 9 4
7 12 4 4 7 5 4 3 6 6 8 7 10 6 8 6 10 11 12 12 14 9 5 6 5 4 5 4 4 3 3 1 2 4 3 2 2 2 3 3 3 4 10 4 7 4 4 7 5
5 8 7 5 6 5 5 4 5 8 9 4 8 5 9 13 15 16 16 15 10 9 9 7 6 6 5 4 5 5 5 2 2 2 5 3 2 2 2 2 4 4 3 5 4 3 5 8 8
5 4 6 10 6 5 4 8 8 10 9 3 2 6 11 12 15 12 12 8 8 12 10 10 8 7 6 5 3 4 4 4 2 3 3 3 3 3 3 3 3 3 4 4 4 4 6 7 8
4 8 7 6 6 6 7 5 5 9 6 10 8 10 10 14 16 10 8 12 13 12 13 10 11 9 8 5 6 3 3 6 3 2 2 3 2 3 3 3 3 4 4 4 4 4 7 6 7
3 4 4 6 4 7 5 9 13 10 6 9 11 11 10 12 8 16 16 15 14 10 10 13 11 10 9 7 5 4 3 5 4 3 4 4 4 4 5 4 3 4 4 6 5 6 7 7 7
3 2 8 5 10 6 10 21 11 11 7 12 12 11 9 10 15 14 8 11 8 8 13 12 11 11 10 9 6 4 2 3 4 3 3 5 5 5 5 4 3 4 4 4 5 5 7 6 6
4 5 6 7 10 5 8 10 7 4 8 11 9 10 9 9 11 11 12 13 11 13 13 13 12 13 12 10 8 7 8 4 3 3 3 4 4 5 5 5 4 5 4 4 6 3 4 7 6
9 5 6 7 5 3 5 13 10 6 5 9 9 9 9 10 19 9 13 11 11 13 13 13 11 12 10 8 6 4 4 3 3 3 3 5 4 5 5 4 5 5 5 4 4 6 4 5 7
2 5 6 3 5 5 9 14 9 14 6 10 11 13 13 16 15 8 9 12 13 13 14 16 15 14 12 8 7 4 6 4 5 5 8 7 5 5 5 4 5 5 5 5 6 6 9 4 5
5 8 14 4 3 5 3 15 10 11 12 10 17 17 17 9 5 5 9 12 15 17 17 15 17 16 13 10 8 4 6 4 3 4 5 5 6 6 6 6 6 6 5 5 6 7 4 3 1
17 19 14 4 2 3 3 17 6 9 8 11 12 14 9 9 10 8 9 12 10 14 16 17 17 16 14 12 8 4 5 4 5 5 3 3 6 7 6 7 6 6 6 7 5 5 5 4 1
20 12 5 5 4 7 3 11 6 6 9 6 9 6 9 8 7 7 7 9 10 10 9 10 13 14 12 14 12 10 7 7 5 6 6 8 8 8 8 9 8 8 5 6 6 4 4 5 4
11 6 11 8 8 3 5 3 6 1 6 11 5 3 3 5 6 8 7 7 5 7 8 8 10 12 11 13 12 10 8 4 3 4 7 6 6 7 7 7 7 8 6 6 8 6 6 3 4
7 5 5 4 4 2 8 8 10 7 10 2 3 1 3 5 5 4 4 5 4 6 7 8 11 11 11 13 12 14 13 8 7 6 6 6 4 4 6 7 8 8 7 8 7 6 7 6 4
1 6 2 1 2 9 3 7 21 5 6 6 6 6 3 3 5 6 6 4 4 6 7 8 10 10 11 13 12 12 10 11 11 10 8 8 6 5 8 8 7 6 6 7 7 7 6 6 5
12 5 7 9 5 2 3 9 11 4 3 5 6 7 5 5 6 8 5 2 3 5 6 7 8 8 9 11 11 9 8 7 6 8 7 7 8 8 8 7 7 7 8 7 7 5 5 5 5
6 5 10 4 2 1 4 9 10 6 2 2 7 7 6 5 5 6 7 5 2 4 7 8 8 7 9 10 8 7 8 8 9 9 6 6 5 6 7 9 8 7 7 8 8 6 6 5 5
3 3 6 2 5 5 7 6 10 1 6 6 6 7 6 2 6 7 7 7 4 2 5 7 7 8 7 7 8 8 9 8 7 7 8 9 7 8 9 9 9 7 6 7 7 5 5 6 3
1 3 3 2 4 6 2 8 8 8 10 17 9 7 6 6 5 7 7 7 6 4 2 5 6 7 7 8 7 8 8 8 8 9 8 9 8 9 10 10 10 9 8 6 6 5 6 6 6
1 7 17 6 6 4 1 10 3 8 8 11 9 6 6 5 5 6 7 6 6 6 5 4 5 6 6 7 7 8 7 7 9 9 9 9 9 8 9 8 9 9 8 8 7 7 7 8 7
Wind_Direction
4 2 87 49 50 61 258 250 264 219 233 141 105 142 202 31 174 210 278 262 220 122 129 108 121 127 123 112 112 130 140 149 153 149 156 149 145 141 130 112 95 67 53 63 42 38 31 356 30
87 123 49 92 117 235 259 237 250 230 227 145 98 118 184 245 229 250 156 206 136 102 91 92 100 141 144 142 157 170 167 163 149 149 161 156 143 135 130 122 112 106 102 97 113 96 78 228 196
131 41 111 153 180 216 232 221 238 253 162 192 115 36 143 206 200 203 214 169 132 96 85 99 105 116 131 138 160 164 170 173 153 172 169 160 143 143 138 132 124 122 119 110 119 134 116 68 25
133 25 36 146 229 249 208 246 196 316 275 233 144 203 262 212 166 184 157 152 119 104 106 115 106 119 136 148 158 160 169 164 162 168 164 158 147 140 136 135 135 132 126 130 126 107 87 74 54
45 80 208 236 249 243 235 251 257 208 221 191 183 210 245 227 166 152 157 158 146 149 136 124 114 106 141 158 173 162 172 163 166 160 159 153 148 148 147 145 144 143 142 123 109 100 82 72 86
97 308 200 237 241 237 246 227 209 193 223 182 175 152 241 53 146 181 162 171 166 158 157 132 121 119 100 117 161 160 180 179 170 165 157 153 155 154 159 157 153 156 136 106 108 102 89 82 103
158 152 226 232 236 254 227 200 195 198 187 238 159 172 245 233 193 155 155 142 160 151 149 142 137 125 111 94 102 152 184 187 172 171 156 153 155 159 161 164 158 158 119 116 107 100 89 87 94
143 145 236 224 184 261 216 179 192 173 228 62 163 217 240 225 156 141 140 158 180 193 180 185 150 130 122 115 88 73 104 173 175 160 134 129 116 99 152 307 164 137 128 119 107 96 103 77 80
138 206 239 221 174 241 180 188 180 322 164 224 201 208 313 133 127 127 142 187 201 218 202 192 169 136 135 131 118 96 74 146 147 128 106 54 42 17 2 314 125 151 121 115 104 98 91 82 74
171 218 233 186 200 222 227 192 183 162 214 229 248 158 86 128 153 168 184 196 204 204 203 199 179 165 149 138 130 127 118 104 85 89 82 90 66 50 61 55 39 117 114 105 96 100 102 78 53
200 228 231 231 220 201 220 232 188 182 243 207 208 179 150 151 179 187 202 204 206 200 195 191 184 171 163 129 117 116 97 134 133 151 153 145 97 50 56 65 41 60 77 60 70 68 46 68 69
220 231 205 207 206 169 210 162 208 196 233 202 216 153 165 180 192 197 206 205 192 191 195 179 182 166 173 139 160 151 142 165 144 192 162 152 133 111 93 89 88 77 76 89 86 75 76 69 69
229 224 216 228 217 218 148 219 220 241 228 188 133 170 190 199 208 213 213 199 188 201 188 183 173 170 171 155 129 147 159 141 162 176 191 154 160 153 129 116 111 103 101 105 99 89 86 76 69
227 215 237 234 225 211 202 244 151 251 183 227 215 226 212 209 206 211 192 203 197 200 193 174 180 169 156 155 153 169 178 132 156 183 199 187 175 155 143 138 124 111 105 102 94 101 95 82 79
255 261 281 226 204 229 133 268 226 228 171 227 233 236 224 222 204 218 213 211 201 199 178 176 172 163 158 145 144 138 185 145 138 192 198 188 182 166 151 145 139 129 113 107 90 86 92 86 78
200 177 239 203 163 223 153 252 239 228 196 241 242 253 241 233 223 229 206 212 192 174 181 174 175 165 155 148 144 151 176 167 153 174 193 185 180 170 153 141 147 133 118 115 116 104 93 85 73
256 217 216 274 195 136 191 259 247 163 191 248 253 253 250 256 240 225 205 204 189 188 176 176 170 168 163 162 158 159 169 159 160 162 167 190 194 170 163 151 150 136 124 121 137 93 101 108 94
227 226 245 217 210 181 215 253 271 249 211 241 264 262 257 255 251 223 215 201 192 190 180 174 172 167 159 146 133 132 145 174 172 188 179 178 194 176 154 149 152 138 125 125 112 115 64 105 116
220 215 231 225 198 169 230 254 241 270 247 249 256 258 251 241 259 205 200 198 197 189 179 177 170 169 157 155 149 162 190 180 195 189 195 166 190 171 161 150 154 140 150 152 141 113 121 89 133
220 238 254 266 171 187 292 267 229 232 251 227 252 253 244 249 266 221 209 196 198 193 190 178 180 171 175 174 170 153 151 184 192 188 195 169 175 171 164 166 162 149 134 144 154 144 124 94 115
229 231 234 217 151 204 329 283 224 249 247 252 252 260 280 248 261 253 226 213 199 194 187 186 180 175 175 165 143 101 105 99 174 179 151 180 182 177 172 173 162 154 149 168 164 156 135 131 190
236 213 191 173 128 248 105 277 276 236 245 238 258 239 258 273 281 278 250 217 199 200 176 175 176 172 172 163 164 170 179 176 194 178 170 178 177 182 180 174 168 161 156 159 167 152 141 131 147
245 183 189 194 201 126 219 255 265 349 267 256 229 211 284 299 284 294 277 223 195 159 163 158 159 166 168 174 177 179 186 159 131 123 152 160 168 176 179 169 165 165 166 158 164 150 153 136 142
150 90 65 74 119 200 202 166 265 192 215 206 178 40 3 350 355 5 39 123 138 140 141 145 155 170 166 174 182 187 188 152 143 151 165 164 159 168 179 173 176 172 163 166 172 158 159 158 143
209 147 150 15 156 232 172 171 252 272 226 191 155 119 87 60 61 52 59 87 133 158 157 154 160 172 171 181 187 187 180 174 173 170 174 169 168 180 187 177 172 173 167 164 160 161 163 170 167
191 208 157 196 192 238 114 220 251 253 305 221 138 128 110 65 53 50 48 101 162 169 173 168 172 170 173 183 190 183 167 176 176 173 170 180 188 184 164 173 168 166 166 167 167 167 165 169 181
200 218 151 91 140 87 227 269 297 226 279 109 134 123 119 110 70 53 47 61 134 183 197 191 178 174 179 187 178 172 166 167 179 171 160 169 158 154 160 164 172 164 164 165 163 170 169 163 165
218 207 85 194 166 215 245 262 237 173 193 184 160 146 134 120 33 26 31 22 7 226 212 194 187 187 179 176 178 181 181 174 157 154 164 167 162 159 161 169 163 160 160 160 158 153 144 147 146
131 170 124 132 201 194 232 251 214 231 196 169 169 152 115 68 28 13 21 12 6 356 238 213 195 181 181 181 175 168 174 169 162 170 166 170 156 163 170 171 166 162 161 157 150 142 142 145 141
356 212 195 193 204 239 140 258 314 248 164 149 150 156 96 78 41 26 19 18 22 10 1 271 221 196 188 178 170 180 164 161 170 174 172 161 168 163 163 160 163 158 155 150 153 151 151 150 149